Regional Weather Roundup
Issued by NWS San Angelo, TX

Home | Current Version | Previous Version | Text Only | Print | Product List | Glossary On
Versions: 1 2 3 4 5 6 7 8 9 10 11 12 13 14 15 16 17 18 19 20 21 22 23 24 25 26 27 28 29 30 31 32 33 34 35 36 37 38 39 40 41 42 43 44 45 46 47 48 49 50
000
ASUS44 KSJT 121910
RWRSJT
WEST CENTRAL TEXAS REGIONAL WEATHER ROUNDUP
NATIONAL WEATHER SERVICE SAN ANGELO TX
200 PM CDT SAT JUL 12 2014

NOTE: "FAIR" INDICATES FEW OR NO CLOUDS BELOW 12,000 FEET WITH NO
SIGNIFICANT WEATHER AND/OR OBSTRUCTIONS TO VISIBILITY.

TXZ049-054-064>066-071>073-076>078-098-099-113-114-127-128-139-140-
154-155-168>170-122000
...LOCATIONS ACROSS WEST CENTRAL TEXAS...

CITY           SKY/WX    TMP DP  RH WIND       PRES   REMARKS
SAN ANGELO     SUNNY     93  51  23 S16G23    30.15F
ABILENE        SUNNY     94  46  19 S17G28    30.15F
DYESS AFB      NOT AVBL
JUNCTION       SUNNY     92  48  22 SE14G24   30.17F
SWEETWATER     SUNNY     92  47  21 SE18G25   30.19F
BROWNWOOD      SUNNY     93  48  21 SE13G22   30.15F HAZE
COLEMAN        CLEAR     95  42  16 S15G24    30.16F
SONORA         NOT AVBL
OZONA          FAIR      86  61  42 S18G25    30.20F
BRADY          SUNNY     93  48  21 S12       30.16F
$$

TEXAS PANHANDLE/OKLAHOMA PANHANDLE

CITY           SKY/WX    TMP DP  RH WIND       PRES   REMARKS
AMARILLO       MOSUNNY   83  61  47 SW15G23   30.19F
BORGER         SUNNY     89  59  36 SW13G24   30.15F
CANADIAN       MOSUNNY   90  62  39 SW14G24   30.11F
DALHART        SUNNY     88  58  36 S17       30.19F
DUMAS          CLEAR     86  59  39 S10G23    30.17F
GUYMON         NOT AVBL
HEREFORD       PTCLDY    81  64  56 S13G22    30.22S
PAMPA          PTCLDY    86  57  37 SW16G26   30.17F
PERRYTON       SUNNY     92  57  30 SW15G28   30.12F
$$

SOUTHERN PANHANDLE/SOUTH PLAINS/ROLLING PLAINS

CITY           SKY/WX    TMP DP  RH WIND       PRES   REMARKS
LUBBOCK        PTSUNNY   82  63  52 S12G20    30.19F
SNYDER         SUNNY     89  55  31 SE16G26   30.16F
CHILDRESS      MOSUNNY   93  60  33 SW18G31   30.12F
SEMINOLE       PTCLDY    88  59  37 SE13      30.17F
$$

PERMIAN BASIN

CITY           SKY/WX    TMP DP  RH WIND       PRES   REMARKS
MIDLAND        SUNNY     88  62  41 SE22      30.14F
ODESSA         MOSUNNY   88  60  38 S15       30.16F
WINK           MOSUNNY   90  62  39 SE14      30.11F
$$

FAR WEST/SOUTHWEST MOUNTAINS/TRANS PECOS

CITY           SKY/WX    TMP DP  RH WIND       PRES   REMARKS
ALPINE         MOCLDY    84  56  37 S16       30.26F
DRYDEN           N/A     92  64  39 SE15G30   30.12F
EL PASO        MOSUNNY   89  55  31 VRB6      30.11F
FORT STOCKTON  MOSUNNY   89  62  40 SE21G29   30.13F
GUADALUPE PASS PTSUNNY   81  55  40 VRB5      30.26F
MARFA          MOSUNNY   82  59  44 S12       30.26F
PECOS          CLEAR     93  58  31 E12       30.09F
$$

DALLAS/FORT WORTH METROPLEX

CITY           SKY/WX    TMP DP  RH WIND       PRES   REMARKS
DFW AIRPORT    SUNNY     96  59  29 S12       30.12F
FTW MEACHAM    SUNNY     97  56  25 S12G22    30.12F
DAL-EXECUTIVE  SUNNY     97  64  33 S9G16     30.13F
GRAND PRAIRIE  SUNNY     93  55  27 SE16      30.14F
ADDISON        SUNNY     95  55  26 S13G22    30.13F
MESQUITE       CLEAR     93  61  33 SE9       30.13F
LANCASTER      CLEAR     93  64  37 SE7       30.14F
$$

NORTH CENTRAL TEXAS

CITY           SKY/WX    TMP DP  RH WIND       PRES   REMARKS
SHRMAN/DENISON CLEAR     96  42  15 SW12      30.13F
GAINESVILLE    SUNNY     96  47  19 S13G20    30.14F
BRIDGEPORT     CLEAR     94  48  21 S12       30.14F
DENTON         SUNNY     95  56  26 SE10G20   30.12F
WAXAHACHIE     CLEAR     93  58  30 SE5       30.15F
GRANBURY       CLEAR     96  54  24 SE12G17   30.14F
$$

WESTERN NORTH TEXAS

CITY           SKY/WX    TMP DP  RH WIND       PRES   REMARKS
WICHITA FALLS  SUNNY     96  52  22 S16G26    30.10F
VERNON         CLEAR     98  49  18 S15G26    30.10F
BRECKENRIDGE   CLEAR     97  42  14 S20G26    30.12F HAZE
COMANCHE       SUNNY     95  46  18 SE12G23   30.15F
$$

CENTRAL AND SOUTH CENTRAL TEXAS

CITY           SKY/WX    TMP DP  RH WIND       PRES   REMARKS
AUSTIN/BERGSTM MOSUNNY   93  60  33 S7        30.14F
WACO           SUNNY     94  61  33 S9        30.14F
HILLSBORO      CLEAR     93  61  34 SE7       30.15S
TEMPLE         SUNNY     91  59  33 S13G18    30.16F
KILLEEN-GRAY   NOT AVBL
FORT HOOD      SUNNY     94  59  31 E13G21    30.15F
GEORGETOWN     SUNNY     93  57  29 SE13      30.16F
LAGO VISTA     FAIR      92  53  27 SE8G17    30.18F
SAN MARCOS     SUNNY     93  57  29 SE9G20    30.15F
NEW BRAUNFELS  SUNNY     93  63  36 S9        30.14F
RANDOLPH AFB   NOT AVBL
SAN ANTONIO    MOSUNNY   91  64  40 VRB5      30.16F
STINSON        MOSUNNY   91  67  44 S6        30.12F
PLEASANTON     NOT AVBL
LA GRANGE      SUNNY     93  69  44 S7        30.13F
GIDDINGS       PTCLDY    91  64  39 CALM      30.19F
$$

EAST TEXAS

CITY           SKY/WX    TMP DP  RH WIND       PRES   REMARKS
PARIS          SUNNY     95  63  34 SW12      30.13F
CLARKSVILLE    MOCLDY    96  62  32 S5        30.12F
TYLER          SUNNY     94  70  45 SW9       30.14F
LONGVIEW       MOSUNNY   95  67  39 SW5       30.13F
PALESTINE      PTCLDY    91  64  40 E6        30.17F
NACOGDOCHES    SUNNY     91  72  52 W5        30.14F
$$

TEXAS HILL COUNTRY AND EDWARDS PLATEAU

CITY           SKY/WX    TMP DP  RH WIND       PRES   REMARKS
LLANO          CLEAR     95  54  24 SE8G16    30.17F
HORSESHOE BAY  FAIR      93  53  25 SE6       30.16F
KERRVILLE      SUNNY     92  56  29 S10G20    30.18F
FREDERICKSBRG  SUNNY     91  50  24 SE9G20    30.18F
ROCKSPRINGS    CLEAR     84  61  45 S17       30.22F
HONDO          SUNNY     89  63  41 CALM      30.17S
UVALDE         CLEAR     88  68  51 SE8       30.15F
DEL RIO        MOSUNNY   89  66  46 SE12G25   30.11F
$$

SOUTHEAST TEXAS

CITY           SKY/WX    TMP DP  RH WIND       PRES   REMARKS
COLLEGE STN    SUNNY     93  65  39 S7        30.15F
CALDWELL       PTCLDY    90  64  43 SE7G17    30.18F
CROCKETT         N/A     93  75  55 SE5       30.17F
BRENHAM        SUNNY     91  66  43 E6        30.15F
HUNTSVILLE     SUNNY     92  71  50 SW7       30.15F
CONROE         MOSUNNY   89  71  55 VRB3      30.16F
HOUSTON BUSH   MOSUNNY   90  70  51 E8        30.14F
HOUSTON HOBBY  PTSUNNY   91  71  51 S6        30.13F
PERLAND        PTSUNNY   90  72  55 CALM      30.15F
WHARTON        MOCLDY    92  69  47 CALM      30.14F
$$

THE UPPER TEXAS COAST

CITY           SKY/WX    TMP DP  RH WIND       PRES   REMARKS
ORANGE         MOCLDY    91  69  48 W3        30.14F
PORT ARTHUR    MOSUNNY   93  73  52 VRB3      30.13F
GALVESTON      PTSUNNY   89  74  60 SE7       30.15F
ANGLETON       PTSUNNY   89  74  60 E5        30.13F
BAY CITY       PTCLDY    93  73  52 SE3       30.13F
$$

TEXAS COASTAL BEND, RIO GRANDE PLAINS DEEP SOUTH TEXAS

CITY           SKY/WX    TMP DP  RH WIND       PRES   REMARKS
VICTORIA         N/A    N/A N/A N/A MISG      30.13F
BEEVILLE       FAIR      93  71  47 SE10G18   30.13F
ROCKPORT       SUNNY     90  73  57 SE13      30.12F
PORT ARANSAS   PTCLDY    86  76  71 E10       30.13F
PORT LAVACA    NOT AVBL
CORPUS CHRISTI MOSUNNY   91  73  55 E17G24    30.12S
KINGSVILLE NAS MOSUNNY   96  71  44 SE16G23   30.10F
COTULLA        MOSUNNY   96  62  32 SE14G20   30.10F
LAREDO         MOSUNNY   96  67  38 SE10G20   30.11F
BROWNSVILLE    PTSUNNY   90  74  59 SE13      30.11S
PORT ISABEL    MOSUNNY   88  75  65 E14       30.11F
HEBBRONVILLE   PTCLDY    93  64  37 SE7G16    30.11F
MCALLEN        MOSUNNY   91  73  55 E10       30.10F
WESLACO        PTSUNNY   85  73  66 SE8       30.10S
FALFURRIAS     PTCLDY    86  64  47 SE6       30.09F
EDINBURG       PTCLDY    95  68  40 S12G17    30.09F
$$


USA.gov is the U.S. government's official web portal to all federal, state and local government web resources and services.